Regional Weather Roundup
Issued by NWS Spokane, WA

Home | Current Version | Previous Version | Text Only | Print | Product List | Glossary On
Versions: 1 2 3 4 5 6 7 8 9 10 11 12 13 14 15 16 17 18 19 20 21 22 23 24 25 26 27 28 29 30 31 32 33 34 35 36 37 38 39 40 41 42 43 44 45 46 47 48 49 50
000
NZUS01 KOTX 021910
RWROTX
EASTERN WASHINGTON/NORTHERN IDAHO ROUNDUP
NATIONAL WEATHER SERVICE, SPOKANE WA
1200 PM PDT MON MAY 02 2016

Note: "fair" indicated few or no clouds below 12,000 feet with no
significant weather and/or obstructions to visibility.

...NORTHEAST WASHINGTON AND NORTHERN IDAHO PANHANDLE...

CITY           SKY/WX    TMP DP  RH WIND       PRES   REMARKS
SPOKANE INTL   FAIR      72  41  32 NE6       30.12F
SPOKANE DOWNTO FAIR      73  43  33 CALM      30.12F
COEUR D ALENE  FAIR      72  43  35 CALM      30.10F
DEER PARK      FAIR      71  39  31 VRB3      30.13F
SANDPOINT      FAIR      68  45  42 E5        30.14F

...SOUTHEAST WASHINGTON AND SOUTHERN IDAHO PANHANDLE...

CITY           SKY/WX    TMP DP  RH WIND       PRES   REMARKS
WALLA WALLA    FAIR      74  48  39 NW7       30.06F
PULLMAN/MOSCOW FAIR      71  46  40 MISG      30.15S
LEWISTON       FAIR      70  49  47 CALM      30.10F
LOWELL           N/A     74  42  31 CALM      30.09F

...COLUMBIA BASIN...

CITY           SKY/WX    TMP DP  RH WIND       PRES   REMARKS
EPHRATA        FAIR      75  44  33 E3        30.08F
MOSES LAKE     FAIR      74  45  35 VRB3      30.09F
TRI CITIES     FAIR      74  51  44 N3        30.06F
HERMISTON      FAIR      77  44  30 CALM      30.04F
PENDLETON      FAIR      79  33  19 CALM      30.05F

...EAST SLOPES CASCADES...

CITY           SKY/WX    TMP DP  RH WIND       PRES   REMARKS
THE DALLES     FAIR      78  41  26 CALM      30.02F
YAKIMA         FAIR      78  41  26 VRB7      30.07F
ELLENSBURG     FAIR      75  41  29 SE7       30.09F
STAMPEDE PASS  FAIR      62  37  39 VRB3      30.13S
WENATCHEE      FAIR      73  41  31 VRB3      30.08F
OMAK           FAIR      73  42  32 S8        30.09F

...SOUTHERN BRITISH COLUMBIA...

CITY           SKY/WX    TMP DP  RH WIND       PRES   REMARKS
PENTICTON      SUNNY     70  41  35 N6        30.06F
CASTLEGAR      MOSUNNY   70  43  37 VRB2      30.10F
CRANBROOK      MOSUNNY   68  39  34 E5        30.15F

...WESTERN MONTANA...

CITY           SKY/WX    TMP DP  RH WIND       PRES   REMARKS
MISSOULA       FAIR      65  38  36 CALM      30.19F

...NEIGHBORING CITIES...

CITY           SKY/WX    TMP DP  RH WIND       PRES   REMARKS
SEATTLE        FAIR      78  50  37 W8        29.97F
CALGARY        PTSUNNY   72  30  21 S8        30.11F



USA.gov is the U.S. government's official web portal to all federal, state and local government web resources and services.